Location: Banios
(43.0451°N, 0.2335°E)
Time: 13:51:59
(UTC+00:00)

SWAS - Pass Details

Date: 25 January 2021
Orbit: 578 x 593 km, 69.9° (Epoch: 25 February)

Event Time Altitude Azimuth Distance (km) Brightness Sun altitude
Exits shadow 05:21:22 41° 207° (SSW) 841 5.0 -21.8°
Maximum altitude 05:22:47 88° 294° (WNW) 587 4.3 -21.5°
Drops below altitude 10° 05:27:04 10° 26° (NNE) 1,910 7.3 -20.7°
Sets 05:29:19 0° 27° (NNE) 2,817 8.2 -20.3°
